Regional Weather Roundup
Issued by NWS

Home | Current Version | Previous Version | Graphics & Text | Print | Product List | Glossary On
Versions: 1 2 3 4 5 6 7 8 9 10 11 12 13 14 15 16 17 18 19 20 21 22 23 24 25 26 27 28 29 30 31 32 33 34 35 36 37 38 39 40 41 42 43 44 45 46 47 48 49 50
000
ASUS43 KLOT 242310
RWRIL

ILLINOIS REGIONAL WEATHER ROUNDUP
NATIONAL WEATHER SERVICE CHICAGO/ROMEOVILLE IL
600 PM CDT THU APR 24 2014

NOTE: "FAIR" INDICATES FEW OR NO CLOUDS BELOW 12,000 FEET WITH NO
SIGNIFICANT WEATHER AND/OR OBSTRUCTIONS TO VISIBILITY.

* THESE STATIONS ARE NOT UNDER NWS QUALITY CONTROL. THEY ALSO MAY NOT
  REPORT WEATHER SUCH AS PRECIPITATION OR FOG.

ILZ001-002-007-009-015-016-024-250000-
NORTHWEST ILLINOIS

CITY           SKY/WX    TMP DP  RH WIND       PRES   REMARKS
MOLINE         LGT RAIN  57  54  89 CALM      29.64F
STERLING*      CLOUDY    59  50  72 W5        29.66S
SAVANNA*       CLOUDY    56  51  82 CALM      29.66S
$$

ILZ003-004-008-010-011-017-018-250000-
NORTH CENTRAL ILLINOIS

CITY           SKY/WX    TMP DP  RH WIND       PRES   REMARKS
ROCKFORD       LGT RAIN  62  39  42 SE14      29.69F
FREEPORT*      LGT RAIN  51  49  92 E5        29.69F
ROCHELLE*      CLOUDY    62  40  43 SE16      29.68S
DE KALB*       LGT RAIN  60  39  46 SE15      29.70R
PERU*          LGT RAIN  68  41  37 CALM      29.66S
$$

ILZ005-006-012>014-019>023-250000-
NORTHEAST ILLINOIS

CITY           SKY/WX    TMP DP  RH WIND       PRES   REMARKS
CHICAGO-OHARE  CLOUDY    62  29  28 SE20      29.72F
CHICAGO-MIDWAY CLOUDY    62  30  29 SE15G26   29.73F
AURORA         CLOUDY    64  35  34 SE20      29.71S
LANSING*       CLOUDY    61  28  28 SE20      29.74F
JOLIET*        CLOUDY    63  33  33 SE9G20    29.72S
WAUKEGAN       CLOUDY    48  30  49 E10       29.75F
DUPAGE AIRPORT CLOUDY    63  33  32 SE17      29.71F
KANKAKEE*      CLOUDY    64  38  38 SE17G24   29.72F
WHEELING       CLOUDY    63  30  28 SE13      29.74F
MORRIS*        CLOUDY    66  29  24 SE16G24   29.69F
ROMEOVILLE*    CLOUDY    62  33  32 SE17G24   29.72S
NORTHERLY ISL    N/A     55  38  52 SE7         N/A
$$

LMZ740>746-250000-
SOUTHERN LAKE MICHIGAN

STATION/POSITION SKY/WX   TEMP    WIND        PRES    VSBY  WAVE
                          AIR SEA DIR/SP/G                  HT/PER
                          (F)     (DEG/KT/KT) (MB)    (MI)  (FT/S)
WAUKEGAN HARBOR            45     120/  6/  8 1009.1S
HARRISON CRIB              53     140/ 19/ 23   N/A
BURNHAM HARBOR             55     130/  6/ 16   N/A
CALUMET HARBOR             61     140/ 12/ 17 1007.7F
MICHIGAN CITY              60     110/ 19/ 27   N/A
$$

ILZ025>027-034>036-040-047-049-050-058-095>099-250000-
WEST-CENTRAL ILLINOIS

CITY           SKY/WX    TMP DP  RH WIND       PRES   REMARKS
QUINCY         HVY RAIN  58  55  90 W10       29.66R FOG
GALESBURG*     CLOUDY    56  55  94 NE7       29.62F
MACOMB*        CLOUDY    63  54  72 E7        29.60F
JACKSONVILLE*  CLOUDY    73  46  38 SE14G20   29.59F
PITTSFIELD*    HVY RAIN  68  55  63 W30G44    29.64R
$$

ILZ028>032-037-038-041>044-048-051>054-059>061-250000-
CENTRAL ILLINOIS

CITY           SKY/WX    TMP DP  RH WIND       PRES   REMARKS
PONTIAC        CLOUDY    72  37  28 S20G26    29.67F
BLOOMINGTON    CLOUDY    69  39  33 S21       29.67F
DECATUR        CLOUDY    73  41  31 S16G24    29.66F
PEORIA         RAIN      66  52  60 S5        29.63S
LACON*         RAIN      67  46  45 S5        29.63S
LINCOLN*       CLOUDY    73  41  32 SE13      29.62F
SPRINGFIELD    CLOUDY    74  44  34 S15       29.62F
TAYLORVILLE    CLOUDY    72  43  35 S17G23    29.64S
$$

ILZ033-039-045-046-055>057-062-063-250000-
EAST-CENTRAL ILLINOIS

CITY           SKY/WX    TMP DP  RH WIND       PRES   REMARKS
CHAMPAIGN      CLOUDY    71  38  29 SE20      29.69F
RANTOUL*       CLOUDY    71  33  24 SE16      29.70F
MATTOON        CLOUDY    71  40  32 S18G29    29.68F
PARIS*         CLOUDY    70  39  31 SE18G28   29.72F
$$

ILZ079-100>102-250000-
SOUTHWEST ILLINOIS

CITY           SKY/WX    TMP DP  RH WIND       PRES   REMARKS
ALTON          PTSUNNY   75  48  38 S16       29.62F
BELLEVILLE     CLOUDY    75  52  44 S13       29.63S
CAHOKIA*       CLOUDY    76  50  40 S13G20    29.61F
SPARTA*        CLOUDY    73  52  46 S16G26    29.66R
$$

ILZ064>066-069>071-074>076-080>082-084>086-088>090-092>094-250000-
SOUTH-CENTRAL ILLINOIS

CITY           SKY/WX    TMP DP  RH WIND       PRES   REMARKS
CARBONDALE     CLOUDY    75  50  41 S14G28    29.66R
CAIRO*         PTSUNNY   78  49  35 S15       29.68S
MARION         PTSUNNY   77  50  38 S23       29.69R
MT. VERNON     PTSUNNY   75  46  35 SE14G20   29.68S
CENTRALIA*     MOSUNNY   74  44  33 SE17G24   29.66S
SALEM*         MOSUNNY   76  46  33 S18       29.67R
METROPOLIS*    PTSUNNY   76  43  30 S10G18    29.69F
$$

ILZ067-068-072-073-078-083-087-091-250000-
SOUTHEAST ILLINOIS

CITY           SKY/WX    TMP DP  RH WIND       PRES   REMARKS
FLORA*         CLOUDY    74  41  30 S18       29.69F
FAIRFIELD*     CLOUDY    75  46  35 SE14      29.69F
HARRISBURG*    PTSUNNY   75  46  35 S14       29.71R
ROBINSON*      CLOUDY    73  41  32 SE13      29.73F
CARMI*         CLOUDY    78  46  32 S14       29.70F
$$

ABBREVIATIONS USED IN REMARKS
   TC - TEMPERATURE IN CELSIUS
  WCI - WIND CHILL INDEX
   HX - HEAT INDEX
  VSB - VISIBILITY
$$




USA.gov is the U.S. government's official web portal to all federal, state and local government web resources and services.